User: anonymous   Login
Location: Huntsville
(41.2590°N, 111.7678°W)
Time: 08:54:07
(UTC+00:00)
Language:

Altair - Orbit

View from above orbital plane
View from above orbital plane
View from above satellite
View from above satellite

Ground track
Ground track

The orbit data is extracted from the following two-line orbital elements,

1 00050U 60009B   22267.17297325 -.00000028  00000-0  52971-3 0  9993
2 00050  47.2319  69.1887 0113453 275.5063  83.2795 12.20122089771407
Epoch (UTC): 24 September 2022 04:09:04
Eccentricity: 0.0113453
inclination: 47.2319°
perigee height: 1501 km
apogee height: 1682 km
right ascension of ascending node: 69.1887°
argument of perigee: 275.5063°
revolutions per day: 12.20122089
mean anomaly at epoch: 83.2795°
orbit number at epoch: 77140

The dashed part of the orbit path shows where the satellite is in the earth's shadow,  

DLR